Погода в Сиуче

Россия / Ульяновская область     54°20′08″N   47°46′33″E
темп.,
°C
ветер,
м/с
пор.,
м/с
влажн.,
%
обл.,
%
осадки,
мм/ч
давл.,
гПа
погр.,
м
18 апреля, вс
вс1801:00+6всв411612 0.0 1021260
04:00+5всв512690 0.0 1021253
07:00+4св411710 0.0 1021283
10:00+8всв69543 0.0 1021498
13:00+12всв78434 0.0 1021906
16:00+13всв673982 0.0 10211251
19:00+11св6105097 0.0 1021557
22:00+7св71467100 0.0 1022476
19 апреля, пн
пн1901:00+5всв71370100 0.0 1023554
04:00+3всв61262100 0.0 1024426
07:00+2всв71376100 0.0 1024555
10:00+4всв81157100 0.0 1025758
13:00+6всв81057100 0.0 10251086
16:00+7в81058100 0.0 10251300
19:00+5в71068100 0.0 1026918
22:00+5в7127299 0.0 1027875
20 апреля, вт
вт2001:00+5в6127096 0.0 1028951
04:00+3в5117375 0.0 1028611
07:00+2в7126741 0.0 1029602
10:00+5вюв811475 0.0 1030903
13:00+7вюв810414 0.0 10291216
16:00+9вюв810389 0.0 10281426
19:00+8вюв7114011 0.0 10271172
22:00+5вюв8154397 0.0 1027753
21 апреля, ср
ср2101:00+4юв7164685 0.0 1026772
04:00+3вюв81749100 0.0 1026681
07:00+3юв81749100 0.0 1025790
10:00+5юв91747100 0.0 1024907
13:00+3ююв81771100 2.0 1025900
16:00+3ююв81777100 2.9 1025817
19:00+3ююв81688100 1.1 1025750
22:00+4ююв81589100 1.6 1026626
22 апреля, чт
чт2201:00+4ю61393100 0.2 1026491
04:00+4ююв61295100 0.2 1026466
07:00+4ю51196100 0.0 1027454
10:00+5ююв5992100 0.0 1027479
13:00+5ююв5993100 0.1 1028519
16:00+5ююв5992100 0.4 1028512
19:00+5ююв51090100 0.0 1029522
22:00+4ююв4986100 0.0 1030408